カタログに戻る

COSMOS 1476

運用中ナビゲーションLEO
NORAD 14174·PAYLOAD·🇷🇺 Russia

打ち上げ Jul 6, 1983 から Plesetsk Cosmodrome

Loading…

次のパス (今後24時間)

TLE

最新Source: Space-Track

元期: Sep 14, 2026, 14:46 UTC

1 14174U 83069D   26257.61572777 -.00000005  00000-0  70218-4 0  9995
2 14174  74.0233 113.9063 0010708  36.1730 352.4025 12.52545706975006

AllMySatでCOSMOS 1476をリアルタイム追跡

Download on the App Store